Weather in Novyj Sulak

Russia / Republic of Dagestan     43°12′42″N   46°48′58″E
temp.,
°C
wind,
m/s
gust,
m/s
humid.,
%
clouds,
%
prec.,
mm/h
press.,
hPa
HPBL,
m
12 april, mon
mon1200:00+10w2274100 0.0 101523
03:00+10w2273100 0.0 101528
06:00+10w3575100 0.0 1017101
09:00+14wnw5661100 0.0 1019686
12:00+17nw4451100 0.0 10191162
15:00+18nne3251100 0.0 10191379
18:00+16ne236699 0.0 102043
21:00+12w22778 0.0 102120
13 april, tue
tue1300:00+11w35864 0.0 102194
03:00+10w368827 0.0 1021120
06:00+10w2286100 0.0 102259
09:00+14n2268100 0.0 1021730
12:00+18e255561 0.0 10201385
15:00+19e78466 0.0 10181065
18:00+13e466657 0.0 1018222
21:00+11e0176100 0.0 101914
14 april, wed
wed1400:00+9e127846 0.0 101622
03:00+10w2279100 0.0 101537
06:00+10w379083 0.0 1015196
09:00+16wnw4568100 0.0 1015723
12:00+18wnw6659100 0.1 10151407
15:00+13sw71074100 1.3 1016432
18:00+14ese1169100 0.8 101729
21:00+13wsw3374100 0.9 101769
15 april, thu
thu1500:00+11sw4990100 2.3 1017407
03:00+11sw3780100 3.4 1016170
06:00+11w3680100 0.0 1016143
09:00+16wnw57606 0.0 1016944
12:00+19wnw674724 0.0 10141413
15:00+20nw56425 0.0 10131749
18:00+17nw23540 0.0 101330
21:00+14sw33580 0.0 101436
16 april, fri
fri1600:00+13ssw2255100 0.0 101315
03:00+12ssw11555 0.0 101211
06:00+12wsw225691 0.0 101316
09:00+18wnw444635 0.0 1014605
12:00+21nw443857 0.0 10141576
15:00+22nw3334100 0.0 10132201
18:00+17wsw4758100 0.0 1015200
21:00+13wnw698891 0.1 1017439